| State | Nebraska | Latest | Unknown (115 cfs) | |
| River | Platte River | Rating | Observed | Estimated |
| Updated | 2026-05-05 8:15 (26 minutes ago) | Flood - The river is flooding. Obstacles can be treacherous or deadly. The river should be avoided at this stage for casual trips and definitely for the inexperienced. Trips should be attempted only with protective gear and equipment.Flood | (none) | (none) |
| Discharge | 115 cfs (median: 1310 cfs) | High - The river is high and potentially dangerous, especially for the young and / or inexperienced. Normal stream obstacles are sometimes difficult to navigate. Extended distances can be attempted, but canoe travel may not be advisable.High | (none) | (none) |
| Height | 3.29 feet | Good - Conditions are ideal for a canoe or kayak. Boats typically will drag on fewer than one-quarter of riffles, if at all, and portages are unnecessary or rare. Normal float lengths can be attempted without a problem.Good | (none) | (none) |
| Trend | Steady (falling over 24 hours) | Low - River is low but can still be floated. Some riffles are okay but most come with significant dragging and might need a portage. Float lengths should be reduced to accommodate low flow, dragging, and portages.Low | (none) | (none) |
| USGS | USGS Site ( Duck Duck Go Maps) | Poor - River is too low to float comfortably. Most or all riffles will drag or must be portaged and some obstacles (such as slick shelf rock) cause undue problems. Avoid the river at this stage for casual paddling trips.Poor | (none) | (none) |
| Date | Start | End | Distance | Condition | Discharge | Height | Fishing | Details |
|---|
A total of 0 rows are displayed.
BLG - Bluegill
CCF - Channel Catfish
CP - Chain Pickerel
FWD - Freshwater Drum
GSF - Green Sunfish
KSB - Kentucky Spotted Bass
LMB - Largemouth Bass
LSF - Longear Sunfish
RB - Rock Bass / Goggle Eye
RSF - Redear Sunfish
RT - Rainbow Trout
SMB - Smallmouth Bass
WB - White Bass
WF - Whitefish
WL - WalleyeThe classic River Trips application is still available for use. It is updated with the new system using a data retrofit. It is no longer maintained. The original River Trips application is no longer updated (as of 1 Dec 2016) but can be checked for errors or for the condition of the data before it was converted to the new system.
| Observation | Height | Discharge | Maximum Discharge | Minimum Discharge | Mean Discharge | P05 | P10 | P20 | P25 | P50 (Median) | P75 | P80 | P90 | P95 |
|---|---|---|---|---|---|---|---|---|---|---|---|---|---|---|
| 2026-05-05 08:15 | 3.29 | 115 | 13400 (1942) | 87 (1955) | 2010 | 227 | 448 | 699 | 841 | 1310 | 2240 | 2690 | 4080 | 5850 |
| 2026-05-05 07:15 | 3.29 | 115 | 13400 (1942) | 87 (1955) | 2010 | 227 | 448 | 699 | 841 | 1310 | 2240 | 2690 | 4080 | 5850 |
| 2026-05-05 06:15 | 3.28 | 109 | 13400 (1942) | 87 (1955) | 2010 | 227 | 448 | 699 | 841 | 1310 | 2240 | 2690 | 4080 | 5850 |
| 2026-05-05 05:15 | 3.28 | 109 | 13400 (1942) | 87 (1955) | 2010 | 227 | 448 | 699 | 841 | 1310 | 2240 | 2690 | 4080 | 5850 |
| 2026-05-05 04:15 | 3.29 | 115 | 13400 (1942) | 87 (1955) | 2010 | 227 | 448 | 699 | 841 | 1310 | 2240 | 2690 | 4080 | 5850 |
| 2026-05-05 03:15 | 3.29 | 115 | 13400 (1942) | 87 (1955) | 2010 | 227 | 448 | 699 | 841 | 1310 | 2240 | 2690 | 4080 | 5850 |
| 2026-05-05 02:15 | 3.29 | 115 | 13400 (1942) | 87 (1955) | 2010 | 227 | 448 | 699 | 841 | 1310 | 2240 | 2690 | 4080 | 5850 |
| 2026-05-05 01:15 | 3.30 | 122 | 13400 (1942) | 87 (1955) | 2010 | 227 | 448 | 699 | 841 | 1310 | 2240 | 2690 | 4080 | 5850 |
| 2026-05-05 00:15 | 3.30 | 122 | 13400 (1942) | 87 (1955) | 2010 | 227 | 448 | 699 | 841 | 1310 | 2240 | 2690 | 4080 | 5850 |
| 2026-05-04 23:15 | 3.30 | 122 | 13400 (1942) | 87 (1955) | 2010 | 227 | 448 | 699 | 841 | 1310 | 2240 | 2690 | 4080 | 5850 |
| 2026-05-04 22:15 | 3.30 | 122 | 13400 (1984) | 104 (1955) | 1970 | 234 | 413 | 712 | 831 | 1450 | 2160 | 2480 | 3900 | 5850 |
| 2026-05-04 21:15 | 3.31 | 129 | 13400 (1984) | 104 (1955) | 1970 | 234 | 413 | 712 | 831 | 1450 | 2160 | 2480 | 3900 | 5850 |
| 2026-05-04 20:15 | 3.31 | 129 | 13400 (1984) | 104 (1955) | 1970 | 234 | 413 | 712 | 831 | 1450 | 2160 | 2480 | 3900 | 5850 |
| 2026-05-04 19:15 | 3.31 | 129 | 13400 (1984) | 104 (1955) | 1970 | 234 | 413 | 712 | 831 | 1450 | 2160 | 2480 | 3900 | 5850 |
| 2026-05-04 18:15 | 3.31 | 129 | 13400 (1984) | 104 (1955) | 1970 | 234 | 413 | 712 | 831 | 1450 | 2160 | 2480 | 3900 | 5850 |
| 2026-05-04 17:15 | 3.32 | 136 | 13400 (1984) | 104 (1955) | 1970 | 234 | 413 | 712 | 831 | 1450 | 2160 | 2480 | 3900 | 5850 |
| 2026-05-04 16:15 | 3.32 | 136 | 13400 (1984) | 104 (1955) | 1970 | 234 | 413 | 712 | 831 | 1450 | 2160 | 2480 | 3900 | 5850 |
| 2026-05-04 15:15 | 3.32 | 136 | 13400 (1984) | 104 (1955) | 1970 | 234 | 413 | 712 | 831 | 1450 | 2160 | 2480 | 3900 | 5850 |
| 2026-05-04 14:15 | 3.33 | 143 | 13400 (1984) | 104 (1955) | 1970 | 234 | 413 | 712 | 831 | 1450 | 2160 | 2480 | 3900 | 5850 |
| 2026-05-04 13:15 | 3.32 | 136 | 13400 (1984) | 104 (1955) | 1970 | 234 | 413 | 712 | 831 | 1450 | 2160 | 2480 | 3900 | 5850 |
| 2026-05-04 12:15 | 3.33 | 143 | 13400 (1984) | 104 (1955) | 1970 | 234 | 413 | 712 | 831 | 1450 | 2160 | 2480 | 3900 | 5850 |
| 2026-05-04 11:15 | 3.33 | 143 | 13400 (1984) | 104 (1955) | 1970 | 234 | 413 | 712 | 831 | 1450 | 2160 | 2480 | 3900 | 5850 |
| 2026-05-04 10:15 | 3.34 | 151 | 13400 (1984) | 104 (1955) | 1970 | 234 | 413 | 712 | 831 | 1450 | 2160 | 2480 | 3900 | 5850 |
| 2026-05-04 09:15 | 3.35 | 159 | 13400 (1984) | 104 (1955) | 1970 | 234 | 413 | 712 | 831 | 1450 | 2160 | 2480 | 3900 | 5850 |
| 2026-05-04 08:15 | 3.35 | 159 | 13400 (1984) | 104 (1955) | 1970 | 234 | 413 | 712 | 831 | 1450 | 2160 | 2480 | 3900 | 5850 |
| 2026-05-04 07:15 | 3.33 | 143 | 13400 (1984) | 104 (1955) | 1970 | 234 | 413 | 712 | 831 | 1450 | 2160 | 2480 | 3900 | 5850 |
| 2026-05-04 06:15 | 3.33 | 143 | 13400 (1984) | 104 (1955) | 1970 | 234 | 413 | 712 | 831 | 1450 | 2160 | 2480 | 3900 | 5850 |
| 2026-05-04 05:15 | 3.34 | 151 | 13400 (1984) | 104 (1955) | 1970 | 234 | 413 | 712 | 831 | 1450 | 2160 | 2480 | 3900 | 5850 |
| 2026-05-04 04:15 | 3.33 | 143 | 13400 (1984) | 104 (1955) | 1970 | 234 | 413 | 712 | 831 | 1450 | 2160 | 2480 | 3900 | 5850 |
| 2026-05-04 03:15 | 3.34 | 151 | 13400 (1984) | 104 (1955) | 1970 | 234 | 413 | 712 | 831 | 1450 | 2160 | 2480 | 3900 | 5850 |
| 2026-05-04 02:15 | 3.34 | 151 | 13400 (1984) | 104 (1955) | 1970 | 234 | 413 | 712 | 831 | 1450 | 2160 | 2480 | 3900 | 5850 |
| 2026-05-04 01:15 | 3.34 | 151 | 13400 (1984) | 104 (1955) | 1970 | 234 | 413 | 712 | 831 | 1450 | 2160 | 2480 | 3900 | 5850 |
| 2026-05-04 00:15 | 3.34 | 151 | 13400 (1984) | 104 (1955) | 1970 | 234 | 413 | 712 | 831 | 1450 | 2160 | 2480 | 3900 | 5850 |
| 2026-05-03 23:15 | 3.34 | 151 | 13400 (1984) | 104 (1955) | 1970 | 234 | 413 | 712 | 831 | 1450 | 2160 | 2480 | 3900 | 5850 |
| 2026-05-03 22:15 | 3.34 | 151 | 13500 (1984) | 121 (2023) | 1890 | 252 | 410 | 695 | 847 | 1410 | 2310 | 2430 | 3500 | 5730 |
| 2026-05-03 21:15 | 3.34 | 151 | 13500 (1984) | 121 (2023) | 1890 | 252 | 410 | 695 | 847 | 1410 | 2310 | 2430 | 3500 | 5730 |
| 2026-05-03 20:15 | 3.35 | 159 | 13500 (1984) | 121 (2023) | 1890 | 252 | 410 | 695 | 847 | 1410 | 2310 | 2430 | 3500 | 5730 |
| 2026-05-03 19:15 | 3.35 | 159 | 13500 (1984) | 121 (2023) | 1890 | 252 | 410 | 695 | 847 | 1410 | 2310 | 2430 | 3500 | 5730 |
| 2026-05-03 18:15 | 3.35 | 159 | 13500 (1984) | 121 (2023) | 1890 | 252 | 410 | 695 | 847 | 1410 | 2310 | 2430 | 3500 | 5730 |
| 2026-05-03 17:15 | 3.36 | 167 | 13500 (1984) | 121 (2023) | 1890 | 252 | 410 | 695 | 847 | 1410 | 2310 | 2430 | 3500 | 5730 |
| 2026-05-03 16:15 | 3.36 | 167 | 13500 (1984) | 121 (2023) | 1890 | 252 | 410 | 695 | 847 | 1410 | 2310 | 2430 | 3500 | 5730 |
| 2026-05-03 15:15 | 3.35 | 159 | 13500 (1984) | 121 (2023) | 1890 | 252 | 410 | 695 | 847 | 1410 | 2310 | 2430 | 3500 | 5730 |
| 2026-05-03 14:15 | 3.35 | 159 | 13500 (1984) | 121 (2023) | 1890 | 252 | 410 | 695 | 847 | 1410 | 2310 | 2430 | 3500 | 5730 |
| 2026-05-03 13:15 | 3.35 | 159 | 13500 (1984) | 121 (2023) | 1890 | 252 | 410 | 695 | 847 | 1410 | 2310 | 2430 | 3500 | 5730 |
| 2026-05-03 12:15 | 3.36 | 167 | 13500 (1984) | 121 (2023) | 1890 | 252 | 410 | 695 | 847 | 1410 | 2310 | 2430 | 3500 | 5730 |
| 2026-05-03 11:15 | 3.36 | 167 | 13500 (1984) | 121 (2023) | 1890 | 252 | 410 | 695 | 847 | 1410 | 2310 | 2430 | 3500 | 5730 |
| 2026-05-03 10:15 | 3.36 | 167 | 13500 (1984) | 121 (2023) | 1890 | 252 | 410 | 695 | 847 | 1410 | 2310 | 2430 | 3500 | 5730 |
| 2026-05-03 09:15 | 3.36 | 167 | 13500 (1984) | 121 (2023) | 1890 | 252 | 410 | 695 | 847 | 1410 | 2310 | 2430 | 3500 | 5730 |
| 2026-05-03 08:15 | 3.36 | 167 | 13500 (1984) | 121 (2023) | 1890 | 252 | 410 | 695 | 847 | 1410 | 2310 | 2430 | 3500 | 5730 |
| 2026-05-03 07:15 | 3.35 | 159 | 13500 (1984) | 121 (2023) | 1890 | 252 | 410 | 695 | 847 | 1410 | 2310 | 2430 | 3500 | 5730 |
| 2026-05-03 06:15 | 3.35 | 159 | 13500 (1984) | 121 (2023) | 1890 | 252 | 410 | 695 | 847 | 1410 | 2310 | 2430 | 3500 | 5730 |
| 2026-05-03 05:15 | 3.35 | 159 | 13500 (1984) | 121 (2023) | 1890 | 252 | 410 | 695 | 847 | 1410 | 2310 | 2430 | 3500 | 5730 |
| 2026-05-03 04:15 | 3.35 | 159 | 13500 (1984) | 121 (2023) | 1890 | 252 | 410 | 695 | 847 | 1410 | 2310 | 2430 | 3500 | 5730 |
| 2026-05-03 03:15 | 3.36 | 167 | 13500 (1984) | 121 (2023) | 1890 | 252 | 410 | 695 | 847 | 1410 | 2310 | 2430 | 3500 | 5730 |
| 2026-05-03 02:15 | 3.36 | 167 | 13500 (1984) | 121 (2023) | 1890 | 252 | 410 | 695 | 847 | 1410 | 2310 | 2430 | 3500 | 5730 |
| 2026-05-03 01:15 | 3.36 | 167 | 13500 (1984) | 121 (2023) | 1890 | 252 | 410 | 695 | 847 | 1410 | 2310 | 2430 | 3500 | 5730 |
| 2026-05-03 00:15 | 3.36 | 167 | 13500 (1984) | 121 (2023) | 1890 | 252 | 410 | 695 | 847 | 1410 | 2310 | 2430 | 3500 | 5730 |
| 2026-05-02 23:15 | 3.36 | 167 | 13500 (1984) | 121 (2023) | 1890 | 252 | 410 | 695 | 847 | 1410 | 2310 | 2430 | 3500 | 5730 |
| 2026-05-02 22:15 | 3.35 | 159 | 13200 (1984) | 127 (2023) | 1820 | 239 | 380 | 663 | 753 | 1410 | 2320 | 2420 | 3650 | 4790 |
| 2026-05-02 21:15 | 3.35 | 159 | 13200 (1984) | 127 (2023) | 1820 | 239 | 380 | 663 | 753 | 1410 | 2320 | 2420 | 3650 | 4790 |
| 2026-05-02 20:15 | 3.36 | 167 | 13200 (1984) | 127 (2023) | 1820 | 239 | 380 | 663 | 753 | 1410 | 2320 | 2420 | 3650 | 4790 |
| 2026-05-02 19:15 | 3.36 | 167 | 13200 (1984) | 127 (2023) | 1820 | 239 | 380 | 663 | 753 | 1410 | 2320 | 2420 | 3650 | 4790 |
| 2026-05-02 18:15 | 3.36 | 167 | 13200 (1984) | 127 (2023) | 1820 | 239 | 380 | 663 | 753 | 1410 | 2320 | 2420 | 3650 | 4790 |
| 2026-05-02 17:15 | 3.35 | 159 | 13200 (1984) | 127 (2023) | 1820 | 239 | 380 | 663 | 753 | 1410 | 2320 | 2420 | 3650 | 4790 |
| 2026-05-02 16:15 | 3.35 | 159 | 13200 (1984) | 127 (2023) | 1820 | 239 | 380 | 663 | 753 | 1410 | 2320 | 2420 | 3650 | 4790 |
| 2026-05-02 15:15 | 3.35 | 159 | 13200 (1984) | 127 (2023) | 1820 | 239 | 380 | 663 | 753 | 1410 | 2320 | 2420 | 3650 | 4790 |
| 2026-05-02 14:15 | 3.35 | 159 | 13200 (1984) | 127 (2023) | 1820 | 239 | 380 | 663 | 753 | 1410 | 2320 | 2420 | 3650 | 4790 |
| 2026-05-02 13:15 | 3.35 | 159 | 13200 (1984) | 127 (2023) | 1820 | 239 | 380 | 663 | 753 | 1410 | 2320 | 2420 | 3650 | 4790 |
| 2026-05-02 12:15 | 3.36 | 167 | 13200 (1984) | 127 (2023) | 1820 | 239 | 380 | 663 | 753 | 1410 | 2320 | 2420 | 3650 | 4790 |
| 2026-05-02 11:15 | 3.36 | 167 | 13200 (1984) | 127 (2023) | 1820 | 239 | 380 | 663 | 753 | 1410 | 2320 | 2420 | 3650 | 4790 |
| 2026-05-02 10:15 | 3.36 | 167 | 13200 (1984) | 127 (2023) | 1820 | 239 | 380 | 663 | 753 | 1410 | 2320 | 2420 | 3650 | 4790 |
| 2026-05-02 09:15 | 3.35 | 159 | 13200 (1984) | 127 (2023) | 1820 | 239 | 380 | 663 | 753 | 1410 | 2320 | 2420 | 3650 | 4790 |
| 2026-05-02 08:15 | 3.35 | 159 | 13200 (1984) | 127 (2023) | 1820 | 239 | 380 | 663 | 753 | 1410 | 2320 | 2420 | 3650 | 4790 |
| 2026-05-02 07:15 | 3.34 | 151 | 13200 (1984) | 127 (2023) | 1820 | 239 | 380 | 663 | 753 | 1410 | 2320 | 2420 | 3650 | 4790 |
| 2026-05-02 06:15 | 3.34 | 151 | 13200 (1984) | 127 (2023) | 1820 | 239 | 380 | 663 | 753 | 1410 | 2320 | 2420 | 3650 | 4790 |
| 2026-05-02 05:15 | 3.35 | 159 | 13200 (1984) | 127 (2023) | 1820 | 239 | 380 | 663 | 753 | 1410 | 2320 | 2420 | 3650 | 4790 |
| 2026-05-02 04:15 | 3.34 | 151 | 13200 (1984) | 127 (2023) | 1820 | 239 | 380 | 663 | 753 | 1410 | 2320 | 2420 | 3650 | 4790 |
| 2026-05-02 03:15 | 3.34 | 151 | 13200 (1984) | 127 (2023) | 1820 | 239 | 380 | 663 | 753 | 1410 | 2320 | 2420 | 3650 | 4790 |
| 2026-05-02 02:15 | 3.34 | 151 | 13200 (1984) | 127 (2023) | 1820 | 239 | 380 | 663 | 753 | 1410 | 2320 | 2420 | 3650 | 4790 |
| 2026-05-02 01:15 | 3.34 | 151 | 13200 (1984) | 127 (2023) | 1820 | 239 | 380 | 663 | 753 | 1410 | 2320 | 2420 | 3650 | 4790 |
| 2026-05-02 00:15 | 3.35 | 159 | 13200 (1984) | 127 (2023) | 1820 | 239 | 380 | 663 | 753 | 1410 | 2320 | 2420 | 3650 | 4790 |
| 2026-05-01 23:15 | 3.35 | 159 | 13200 (1984) | 127 (2023) | 1820 | 239 | 380 | 663 | 753 | 1410 | 2320 | 2420 | 3650 | 4790 |
| 2026-05-01 22:15 | 3.35 | 159 | 12400 (1984) | 129 (2023) | 1800 | 248 | 384 | 593 | 804 | 1460 | 2200 | 2340 | 3320 | 4810 |
| 2026-05-01 21:15 | 3.35 | 159 | 12400 (1984) | 129 (2023) | 1800 | 248 | 384 | 593 | 804 | 1460 | 2200 | 2340 | 3320 | 4810 |
| 2026-05-01 20:15 | 3.34 | 151 | 12400 (1984) | 129 (2023) | 1800 | 248 | 384 | 593 | 804 | 1460 | 2200 | 2340 | 3320 | 4810 |
| 2026-05-01 19:15 | 3.35 | 159 | 12400 (1984) | 129 (2023) | 1800 | 248 | 384 | 593 | 804 | 1460 | 2200 | 2340 | 3320 | 4810 |
| 2026-05-01 18:15 | 3.35 | 159 | 12400 (1984) | 129 (2023) | 1800 | 248 | 384 | 593 | 804 | 1460 | 2200 | 2340 | 3320 | 4810 |
| 2026-05-01 17:15 | 3.35 | 159 | 12400 (1984) | 129 (2023) | 1800 | 248 | 384 | 593 | 804 | 1460 | 2200 | 2340 | 3320 | 4810 |
| 2026-05-01 16:15 | 3.36 | 167 | 12400 (1984) | 129 (2023) | 1800 | 248 | 384 | 593 | 804 | 1460 | 2200 | 2340 | 3320 | 4810 |
| 2026-05-01 15:15 | 3.36 | 167 | 12400 (1984) | 129 (2023) | 1800 | 248 | 384 | 593 | 804 | 1460 | 2200 | 2340 | 3320 | 4810 |
| 2026-05-01 14:15 | 3.36 | 167 | 12400 (1984) | 129 (2023) | 1800 | 248 | 384 | 593 | 804 | 1460 | 2200 | 2340 | 3320 | 4810 |
| 2026-05-01 13:15 | 3.37 | 175 | 12400 (1984) | 129 (2023) | 1800 | 248 | 384 | 593 | 804 | 1460 | 2200 | 2340 | 3320 | 4810 |
| 2026-05-01 12:15 | 3.38 | 184 | 12400 (1984) | 129 (2023) | 1800 | 248 | 384 | 593 | 804 | 1460 | 2200 | 2340 | 3320 | 4810 |
| 2026-05-01 11:15 | 3.38 | 184 | 12400 (1984) | 129 (2023) | 1800 | 248 | 384 | 593 | 804 | 1460 | 2200 | 2340 | 3320 | 4810 |
| 2026-05-01 10:15 | 3.38 | 184 | 12400 (1984) | 129 (2023) | 1800 | 248 | 384 | 593 | 804 | 1460 | 2200 | 2340 | 3320 | 4810 |
| 2026-05-01 09:15 | 3.37 | 175 | 12400 (1984) | 129 (2023) | 1800 | 248 | 384 | 593 | 804 | 1460 | 2200 | 2340 | 3320 | 4810 |
| 2026-05-01 08:15 | 3.36 | 167 | 12400 (1984) | 129 (2023) | 1800 | 248 | 384 | 593 | 804 | 1460 | 2200 | 2340 | 3320 | 4810 |
| 2026-05-01 07:15 | 3.36 | 167 | 12400 (1984) | 129 (2023) | 1800 | 248 | 384 | 593 | 804 | 1460 | 2200 | 2340 | 3320 | 4810 |
| 2026-05-01 06:15 | 3.36 | 167 | 12400 (1984) | 129 (2023) | 1800 | 248 | 384 | 593 | 804 | 1460 | 2200 | 2340 | 3320 | 4810 |
| 2026-05-01 05:15 | 3.36 | 167 | 12400 (1984) | 129 (2023) | 1800 | 248 | 384 | 593 | 804 | 1460 | 2200 | 2340 | 3320 | 4810 |
| 2026-05-01 04:15 | 3.36 | 167 | 12400 (1984) | 129 (2023) | 1800 | 248 | 384 | 593 | 804 | 1460 | 2200 | 2340 | 3320 | 4810 |
| 2026-05-01 03:15 | 3.37 | 175 | 12400 (1984) | 129 (2023) | 1800 | 248 | 384 | 593 | 804 | 1460 | 2200 | 2340 | 3320 | 4810 |
| 2026-05-01 02:15 | 3.37 | 175 | 12400 (1984) | 129 (2023) | 1800 | 248 | 384 | 593 | 804 | 1460 | 2200 | 2340 | 3320 | 4810 |
| 2026-05-01 01:15 | 3.37 | 175 | 12400 (1984) | 129 (2023) | 1800 | 248 | 384 | 593 | 804 | 1460 | 2200 | 2340 | 3320 | 4810 |
| 2026-05-01 00:15 | 3.38 | 184 | 12400 (1984) | 129 (2023) | 1800 | 248 | 384 | 593 | 804 | 1460 | 2200 | 2340 | 3320 | 4810 |
| 2026-04-30 23:15 | 3.37 | 175 | 12400 (1984) | 129 (2023) | 1800 | 248 | 384 | 593 | 804 | 1460 | 2200 | 2340 | 3320 | 4810 |
| 2026-04-30 22:15 | 3.37 | 175 | 11800 (1984) | 130 (2023) | 1740 | 254 | 388 | 652 | 784 | 1460 | 2030 | 2150 | 3310 | 4910 |
| 2026-04-30 21:15 | 3.37 | 175 | 11800 (1984) | 130 (2023) | 1740 | 254 | 388 | 652 | 784 | 1460 | 2030 | 2150 | 3310 | 4910 |
| 2026-04-30 20:15 | 3.37 | 175 | 11800 (1984) | 130 (2023) | 1740 | 254 | 388 | 652 | 784 | 1460 | 2030 | 2150 | 3310 | 4910 |
| 2026-04-30 19:15 | 3.36 | 167 | 11800 (1984) | 130 (2023) | 1740 | 254 | 388 | 652 | 784 | 1460 | 2030 | 2150 | 3310 | 4910 |
| 2026-04-30 18:15 | 3.37 | 175 | 11800 (1984) | 130 (2023) | 1740 | 254 | 388 | 652 | 784 | 1460 | 2030 | 2150 | 3310 | 4910 |
| 2026-04-30 17:15 | 3.37 | 175 | 11800 (1984) | 130 (2023) | 1740 | 254 | 388 | 652 | 784 | 1460 | 2030 | 2150 | 3310 | 4910 |
| 2026-04-30 16:15 | 3.37 | 175 | 11800 (1984) | 130 (2023) | 1740 | 254 | 388 | 652 | 784 | 1460 | 2030 | 2150 | 3310 | 4910 |
| 2026-04-30 15:15 | 3.37 | 175 | 11800 (1984) | 130 (2023) | 1740 | 254 | 388 | 652 | 784 | 1460 | 2030 | 2150 | 3310 | 4910 |
| 2026-04-30 14:15 | 3.38 | 184 | 11800 (1984) | 130 (2023) | 1740 | 254 | 388 | 652 | 784 | 1460 | 2030 | 2150 | 3310 | 4910 |
| 2026-04-30 13:15 | 3.38 | 184 | 11800 (1984) | 130 (2023) | 1740 | 254 | 388 | 652 | 784 | 1460 | 2030 | 2150 | 3310 | 4910 |
| 2026-04-30 12:15 | 3.38 | 184 | 11800 (1984) | 130 (2023) | 1740 | 254 | 388 | 652 | 784 | 1460 | 2030 | 2150 | 3310 | 4910 |
| 2026-04-30 11:15 | 3.39 | 193 | 11800 (1984) | 130 (2023) | 1740 | 254 | 388 | 652 | 784 | 1460 | 2030 | 2150 | 3310 | 4910 |
| 2026-04-30 10:15 | 3.39 | 193 | 11800 (1984) | 130 (2023) | 1740 | 254 | 388 | 652 | 784 | 1460 | 2030 | 2150 | 3310 | 4910 |
| 2026-04-30 09:15 | 3.39 | 193 | 11800 (1984) | 130 (2023) | 1740 | 254 | 388 | 652 | 784 | 1460 | 2030 | 2150 | 3310 | 4910 |
| 2026-04-30 08:15 | 3.39 | 193 | 11800 (1984) | 130 (2023) | 1740 | 254 | 388 | 652 | 784 | 1460 | 2030 | 2150 | 3310 | 4910 |
| 2026-04-30 07:15 | 3.39 | 193 | 11800 (1984) | 130 (2023) | 1740 | 254 | 388 | 652 | 784 | 1460 | 2030 | 2150 | 3310 | 4910 |
| 2026-04-30 06:15 | 3.39 | 264 | 11800 (1984) | 130 (2023) | 1740 | 254 | 388 | 652 | 784 | 1460 | 2030 | 2150 | 3310 | 4910 |
| 2026-04-30 05:15 | 3.39 | 264 | 11800 (1984) | 130 (2023) | 1740 | 254 | 388 | 652 | 784 | 1460 | 2030 | 2150 | 3310 | 4910 |
| 2026-04-30 04:15 | 3.39 | 264 | 11800 (1984) | 130 (2023) | 1740 | 254 | 388 | 652 | 784 | 1460 | 2030 | 2150 | 3310 | 4910 |
| 2026-04-30 03:15 | 3.39 | 264 | 11800 (1984) | 130 (2023) | 1740 | 254 | 388 | 652 | 784 | 1460 | 2030 | 2150 | 3310 | 4910 |
| 2026-04-30 02:15 | 3.40 | 275 | 11800 (1984) | 130 (2023) | 1740 | 254 | 388 | 652 | 784 | 1460 | 2030 | 2150 | 3310 | 4910 |
| 2026-04-30 01:15 | 3.39 | 264 | 11800 (1984) | 130 (2023) | 1740 | 254 | 388 | 652 | 784 | 1460 | 2030 | 2150 | 3310 | 4910 |
| 2026-04-30 00:15 | 3.39 | 264 | 11800 (1984) | 130 (2023) | 1740 | 254 | 388 | 652 | 784 | 1460 | 2030 | 2150 | 3310 | 4910 |
| 2026-04-29 23:15 | 3.39 | 264 | 11800 (1984) | 130 (2023) | 1740 | 254 | 388 | 652 | 784 | 1460 | 2030 | 2150 | 3310 | 4910 |
| 2026-04-29 22:15 | 3.39 | 264 | 10600 (1984) | 159 (2023) | 1740 | 251 | 383 | 629 | 875 | 1420 | 2050 | 2300 | 3430 | 4800 |
| 2026-04-29 21:15 | 3.39 | 264 | 10600 (1984) | 159 (2023) | 1740 | 251 | 383 | 629 | 875 | 1420 | 2050 | 2300 | 3430 | 4800 |
| 2026-04-29 20:15 | 3.39 | 264 | 10600 (1984) | 159 (2023) | 1740 | 251 | 383 | 629 | 875 | 1420 | 2050 | 2300 | 3430 | 4800 |
| 2026-04-29 19:15 | 3.39 | 264 | 10600 (1984) | 159 (2023) | 1740 | 251 | 383 | 629 | 875 | 1420 | 2050 | 2300 | 3430 | 4800 |
| 2026-04-29 18:15 | 3.40 | 275 | 10600 (1984) | 159 (2023) | 1740 | 251 | 383 | 629 | 875 | 1420 | 2050 | 2300 | 3430 | 4800 |
| 2026-04-29 17:15 | 3.39 | 264 | 10600 (1984) | 159 (2023) | 1740 | 251 | 383 | 629 | 875 | 1420 | 2050 | 2300 | 3430 | 4800 |
| 2026-04-29 16:15 | 3.39 | 264 | 10600 (1984) | 159 (2023) | 1740 | 251 | 383 | 629 | 875 | 1420 | 2050 | 2300 | 3430 | 4800 |
| 2026-04-29 15:15 | 3.38 | 253 | 10600 (1984) | 159 (2023) | 1740 | 251 | 383 | 629 | 875 | 1420 | 2050 | 2300 | 3430 | 4800 |
| 2026-04-29 14:15 | 3.39 | 264 | 10600 (1984) | 159 (2023) | 1740 | 251 | 383 | 629 | 875 | 1420 | 2050 | 2300 | 3430 | 4800 |
| 2026-04-29 13:15 | 3.39 | 264 | 10600 (1984) | 159 (2023) | 1740 | 251 | 383 | 629 | 875 | 1420 | 2050 | 2300 | 3430 | 4800 |
| 2026-04-29 12:15 | 3.40 | 275 | 10600 (1984) | 159 (2023) | 1740 | 251 | 383 | 629 | 875 | 1420 | 2050 | 2300 | 3430 | 4800 |
| 2026-04-29 11:15 | 3.41 | 286 | 10600 (1984) | 159 (2023) | 1740 | 251 | 383 | 629 | 875 | 1420 | 2050 | 2300 | 3430 | 4800 |
| 2026-04-29 10:15 | 3.40 | 275 | 10600 (1984) | 159 (2023) | 1740 | 251 | 383 | 629 | 875 | 1420 | 2050 | 2300 | 3430 | 4800 |
| 2026-04-29 09:15 | 3.40 | 275 | 10600 (1984) | 159 (2023) | 1740 | 251 | 383 | 629 | 875 | 1420 | 2050 | 2300 | 3430 | 4800 |
| 2026-04-29 08:15 | 3.40 | 275 | 10600 (1984) | 159 (2023) | 1740 | 251 | 383 | 629 | 875 | 1420 | 2050 | 2300 | 3430 | 4800 |
| 2026-04-29 07:15 | 3.39 | 264 | 10600 (1984) | 159 (2023) | 1740 | 251 | 383 | 629 | 875 | 1420 | 2050 | 2300 | 3430 | 4800 |
| 2026-04-29 06:15 | 3.38 | 253 | 10600 (1984) | 159 (2023) | 1740 | 251 | 383 | 629 | 875 | 1420 | 2050 | 2300 | 3430 | 4800 |
| 2026-04-29 05:15 | 3.38 | 253 | 10600 (1984) | 159 (2023) | 1740 | 251 | 383 | 629 | 875 | 1420 | 2050 | 2300 | 3430 | 4800 |
| 2026-04-29 04:15 | 3.39 | 264 | 10600 (1984) | 159 (2023) | 1740 | 251 | 383 | 629 | 875 | 1420 | 2050 | 2300 | 3430 | 4800 |
| 2026-04-29 03:15 | 3.39 | 264 | 10600 (1984) | 159 (2023) | 1740 | 251 | 383 | 629 | 875 | 1420 | 2050 | 2300 | 3430 | 4800 |
| 2026-04-29 02:15 | 3.39 | 264 | 10600 (1984) | 159 (2023) | 1740 | 251 | 383 | 629 | 875 | 1420 | 2050 | 2300 | 3430 | 4800 |
| 2026-04-29 01:15 | 3.39 | 264 | 10600 (1984) | 159 (2023) | 1740 | 251 | 383 | 629 | 875 | 1420 | 2050 | 2300 | 3430 | 4800 |
| 2026-04-29 00:15 | 3.39 | 264 | 10600 (1984) | 159 (2023) | 1740 | 251 | 383 | 629 | 875 | 1420 | 2050 | 2300 | 3430 | 4800 |
| 2026-04-28 23:15 | 3.39 | 264 | 10600 (1984) | 159 (2023) | 1740 | 251 | 383 | 629 | 875 | 1420 | 2050 | 2300 | 3430 | 4800 |
| 2026-04-28 22:15 | 3.39 | 264 | 9430 (1984) | 18 (1967) | 1780 | 287 | 393 | 642 | 796 | 1500 | 2230 | 2590 | 3590 | 4570 |
| 2026-04-28 21:15 | 3.39 | 264 | 9430 (1984) | 18 (1967) | 1780 | 287 | 393 | 642 | 796 | 1500 | 2230 | 2590 | 3590 | 4570 |
| 2026-04-28 20:15 | 3.39 | 264 | 9430 (1984) | 18 (1967) | 1780 | 287 | 393 | 642 | 796 | 1500 | 2230 | 2590 | 3590 | 4570 |
| 2026-04-28 19:15 | 3.39 | 264 | 9430 (1984) | 18 (1967) | 1780 | 287 | 393 | 642 | 796 | 1500 | 2230 | 2590 | 3590 | 4570 |
| 2026-04-28 18:15 | 3.39 | 264 | 9430 (1984) | 18 (1967) | 1780 | 287 | 393 | 642 | 796 | 1500 | 2230 | 2590 | 3590 | 4570 |
| 2026-04-28 17:15 | 3.38 | 253 | 9430 (1984) | 18 (1967) | 1780 | 287 | 393 | 642 | 796 | 1500 | 2230 | 2590 | 3590 | 4570 |
| 2026-04-28 16:15 | 3.38 | 253 | 9430 (1984) | 18 (1967) | 1780 | 287 | 393 | 642 | 796 | 1500 | 2230 | 2590 | 3590 | 4570 |
| 2026-04-28 15:15 | 3.38 | 253 | 9430 (1984) | 18 (1967) | 1780 | 287 | 393 | 642 | 796 | 1500 | 2230 | 2590 | 3590 | 4570 |
| 2026-04-28 14:15 | 3.38 | 253 | 9430 (1984) | 18 (1967) | 1780 | 287 | 393 | 642 | 796 | 1500 | 2230 | 2590 | 3590 | 4570 |
| 2026-04-28 13:15 | 3.39 | 264 | 9430 (1984) | 18 (1967) | 1780 | 287 | 393 | 642 | 796 | 1500 | 2230 | 2590 | 3590 | 4570 |
| 2026-04-28 12:15 | 3.39 | 264 | 9430 (1984) | 18 (1967) | 1780 | 287 | 393 | 642 | 796 | 1500 | 2230 | 2590 | 3590 | 4570 |
| 2026-04-28 11:15 | 3.39 | 264 | 9430 (1984) | 18 (1967) | 1780 | 287 | 393 | 642 | 796 | 1500 | 2230 | 2590 | 3590 | 4570 |
| 2026-04-28 10:15 | 3.39 | 264 | 9430 (1984) | 18 (1967) | 1780 | 287 | 393 | 642 | 796 | 1500 | 2230 | 2590 | 3590 | 4570 |
| 2026-04-28 09:15 | 3.38 | 253 | 9430 (1984) | 18 (1967) | 1780 | 287 | 393 | 642 | 796 | 1500 | 2230 | 2590 | 3590 | 4570 |
| 2026-04-28 08:15 | 3.39 | 264 | 9430 (1984) | 18 (1967) | 1780 | 287 | 393 | 642 | 796 | 1500 | 2230 | 2590 | 3590 | 4570 |
| 2026-04-28 07:15 | 3.39 | 264 | 9430 (1984) | 18 (1967) | 1780 | 287 | 393 | 642 | 796 | 1500 | 2230 | 2590 | 3590 | 4570 |
| 2026-04-28 06:15 | 3.39 | 264 | 9430 (1984) | 18 (1967) | 1780 | 287 | 393 | 642 | 796 | 1500 | 2230 | 2590 | 3590 | 4570 |
| 2026-04-28 05:15 | 3.37 | 242 | 9430 (1984) | 18 (1967) | 1780 | 287 | 393 | 642 | 796 | 1500 | 2230 | 2590 | 3590 | 4570 |
| 2026-04-28 04:15 | 3.38 | 253 | 9430 (1984) | 18 (1967) | 1780 | 287 | 393 | 642 | 796 | 1500 | 2230 | 2590 | 3590 | 4570 |
| 2026-04-28 03:15 | 3.38 | 253 | 9430 (1984) | 18 (1967) | 1780 | 287 | 393 | 642 | 796 | 1500 | 2230 | 2590 | 3590 | 4570 |
| 2026-04-28 02:15 | 3.37 | 242 | 9430 (1984) | 18 (1967) | 1780 | 287 | 393 | 642 | 796 | 1500 | 2230 | 2590 | 3590 | 4570 |
| 2026-04-28 01:15 | 3.38 | 253 | 9430 (1984) | 18 (1967) | 1780 | 287 | 393 | 642 | 796 | 1500 | 2230 | 2590 | 3590 | 4570 |
| 2026-04-28 00:15 | 3.37 | 242 | 9430 (1984) | 18 (1967) | 1780 | 287 | 393 | 642 | 796 | 1500 | 2230 | 2590 | 3590 | 4570 |
| 2026-04-27 23:15 | 3.36 | 232 | 9430 (1984) | 18 (1967) | 1780 | 287 | 393 | 642 | 796 | 1500 | 2230 | 2590 | 3590 | 4570 |
A total of 178 rows are displayed for years 1942 through 2025.